This is the latest recevied weather packets stored in our database for station/object KC8YYF. If no packets are shown the sender has not sent any weather packets the latest 10 day(s).
| Time | Temp. | Humidity | Pressure | Rain* | Wind** | Luminosity | Snow |
|---|---|---|---|---|---|---|---|
| 1777931793 | 21.67° C | 56% | 1007.6 hPa | 0 mm | - | 44 W/m² | - |
| 1777931491 | 22.22° C | 55% | 1007.7 hPa | 0 mm | - | 61 W/m² | - |
| 1777931186 | 23.33° C | 52% | 1007.9 hPa | 0 mm | - | 269 W/m² | - |
| 1777930883 | 23.89° C | 52% | 1007.7 hPa | 0 mm | - | 321 W/m² | - |
| 1777930579 | 23.89° C | 50% | 1007.6 hPa | 0 mm | - | 345 W/m² | - |
| 1777930276 | 23.33° C | 51% | 1007.6 hPa | 0 mm | - | 376 W/m² | - |
| 1777929972 | 22.78° C | 53% | 1007.6 hPa | 0 mm | - | 355 W/m² | - |
| 1777929670 | 22.78° C | 51% | 1007.9 hPa | 0 mm | - | 331 W/m² | - |
| 1777929367 | 22.78° C | 54% | 1008 hPa | 0 mm | - | 275 W/m² | - |
| 1777929063 | 21.67° C | 56% | 1007.9 hPa | 0 mm | - | 50 W/m² | - |
| 1777928761 | 22.22° C | 54% | 1007.8 hPa | 0 mm | - | 29 W/m² | - |
| 1777928457 | 22.78° C | 50% | 1007.7 hPa | 0 mm | - | 66 W/m² | - |
| 1777928155 | 23.33° C | 51% | 1008 hPa | 0 mm | - | 478 W/m² | - |
| 1777927852 | 23.89° C | 51% | 1007.8 hPa | 0 mm | - | 471 W/m² | - |
| 1777927550 | 23.33° C | 50% | 1007.8 hPa | 0 mm | - | 510 W/m² | - |
| 1777927249 | 22.78° C | 52% | 1007.9 hPa | 0 mm | - | 72 W/m² | - |
| 1777926947 | 22.22° C | 53% | 1007.9 hPa | 0 mm | - | 93 W/m² | - |
| 1777926644 | 21.67° C | 53% | 1007.7 hPa | 0 mm | - | 94 W/m² | - |
| 1777926339 | 22.22° C | 53% | 1007.8 hPa | 0 mm | - | 69 W/m² | - |
| 1777926037 | 22.78° C | 52% | 1007.6 hPa | 0 mm | - | 105 W/m² | - |
| 1777925733 | 22.78° C | 51% | 1007.7 hPa | 0 mm | - | 184 W/m² | - |
| 1777925432 | 22.78° C | 53% | 1007.9 hPa | 0 mm | - | 103 W/m² | - |
| 1777925127 | 23.33° C | 50% | 1008 hPa | 0 mm | - | 274 W/m² | - |
| 1777924824 | 23.33° C | 51% | 1007.8 hPa | 0 mm | - | 180 W/m² | - |
| 1777924520 | 23.89° C | 53% | 1007.9 hPa | 0 mm | - | 384 W/m² | - |
* Rain latest hour (hover to see other rain measurements)
** Current wind speed in m/s (hover to see current wind gust speed)